カタログに戻る

FORMOSAT7-6/COSMIC2-6

運用中科学VLEO
NORAD 44353·PAYLOAD·🇹🇼 Taiwan

打ち上げ Jun 25, 2019 から Cape Canaveral Space Force Station

Loading…

次のパス (今後24時間)

TLE

最新Source: Space-Track

元期: Sep 14, 2026, 15:06 UTC

1 44353U 19036Q   26257.62937383  .00002148  00000-0  15716-3 0  9999
2 44353  23.9975  86.4750 0001388  67.3360 292.7287 14.96824232395231

AllMySatでFORMOSAT7-6/COSMIC2-6をリアルタイム追跡

Download on the App Store